sat.trackr.live / text

‹ back to catalog

STARLINK-32550

NORAD 62131 · 2024-222T

PAYLOAD ACTIVE UNKNOWN

§ Identity

Operator
Country
US
Launch date
2024-11-27
Launch site
AFETR
Launch vehicle
Mass (kg)
RCS (m²)

Purposes: comms

External: N2YO · Heavens-Above · Gunter

§ Orbital elements

Epoch: 2026-05-25T04:12:48.816000Z

Period
94.27 min
Inclination
43.0032°
Eccentricity
0.0001556
Mean motion
15.27601153 rev/d
Perigee alt
481.9 km
Apogee alt
484.1 km
Semi-major
6,861.1 km
B*
7.3274e-4
RAAN
64.4738°
Arg perigee
267.0931°
Mean anomaly
92.9743°
Rev number
8,449

§ Raw data

STARLINK-325501 62131U 24222T   26145.17556500  .00019969  00000+0  73274-3 0  99912 62131  43.0032  64.4738 0001556 267.0931  92.9743 15.27601153 84494

JSON: /api/v1/satellites/62131 · /tle

For live sub-satellite position, see the globe view (requires WebGL).

§ Visibility from observer

Set your observer location to see the next 7 days of passes ≥ 10°. The values pass through the URL so the page stays shareable.

No JS? Fill the form by hand. The geolocation button needs JavaScript.